Location: ??
(34.7252°N, 135.5457°E)
Time: 18:10:11
(UTC+00:00)

Cosmos 2333 - Pass Details

Date: 24 September 2020
Orbit: 831 x 864 km, 70.9° (Epoch: 27 October)

Event Time Altitude Azimuth Distance (km) Brightness Sun altitude
Exits shadow 19:40:27 - 212° (SSW) 2,711 6.4 -14.6°
Reaches altitude 10° 19:41:02 10° 213° (SSW) 2,494 6.3 -14.5°
Maximum altitude 19:46:42 60° 293° (WNW) 983 4.3 -13.4°
Drops below altitude 10° 19:52:24 10° 14° (NNE) 2,507 6.9 -12.2°
Sets 19:54:55 0° 18° (NNE) 3,445 7.7 -11.7°
